Crane Lake, MN

7:24 AM CDT on September 25, 2016 (GMT -0500)
Crane Lake

Weather History for KCDD - August, 2012

Change the Weather History Date:

Thursday, August 16, 2012

  Actual Average Record
Temperature  
Mean Temperature 51 °F -  
Max Temperature 60 °F 73 °F 86 °F (2003)
Min Temperature 42 °F 52 °F 39 °F (2007)
Degree Days  
Heating Degree Days 14    
Growing Degree Days 1 (Base 50)    
Moisture  
Dew Point 55 °F    
Average Humidity 95    
Maximum Humidity 100    
Minimum Humidity 87    
Precipitation  
Precipitation 0.01 in - - ()
Sea Level Pressure  
Sea Level Pressure 29.83 in    
Wind  
Wind Speed 6 mph (WNW)    
Max Wind Speed 17 mph    
Max Gust Speed 25 mph    
Visibility 8 miles    
Events Rain    
Averages and records for this station are not official NWS values.
T = Trace of Precipitation, MM = Missing Value Source: NWS Daily Summary

Daily Weather History Graph

Daily Weather History Graph

Search for Another Location

Airport or City:

Trip Planner

Search our weather history database for the weather conditions in past years. The results will help you decide how hot, cold, wet, or windy it might be!

Date:

Astronomy

Aug. 16, 2012 Rise Set
Actual Time 6:06 AM CDT 8:21 PM CDT
Civil Twilight 5:31 AM CDT 8:55 PM CDT
Nautical Twilight 4:49 AM CDT 9:37 PM CDT
Astronomical Twilight 4:00 AM CDT 10:25 PM CDT
Moon 5:05 AM CDT (8/16) 7:27 PM CDT (8/16)
Length of Visible Light 15h 23m
Length of Day
14h 14m
Waning Crescent, 1% of the Moon is Illuminated
Aug 16
Waning Crescent
Aug 17
New
Aug 24
First Quarter
Aug 31
Full
Sep 8
Last Quarter

Hourly Weather History & Observations

Time (CDT) Temp. Dew Point Humidity Pressure Visibility Wind Dir Wind Speed Gust Speed Precip Events Conditions
12:13 AM 60.8 °F 60.8 °F 100% 29.69 in 10.0 mi West 5.8 mph - N/A   Overcast
12:33 AM 60.8 °F 59.0 °F 94% 29.69 in 10.0 mi West 5.8 mph - N/A   Overcast
12:53 AM 60.8 °F 57.2 °F 88% 29.69 in 10.0 mi West 3.5 mph - N/A   Overcast
1:13 AM 59.0 °F 57.2 °F 94% 29.70 in 10.0 mi WNW 5.8 mph - N/A   Mostly Cloudy
1:33 AM 59.0 °F 57.2 °F 94% 29.70 in 10.0 mi West 5.8 mph - N/A   Overcast
1:53 AM 57.2 °F 55.4 °F 94% 29.71 in 10.0 mi WSW 6.9 mph - N/A   Overcast
2:13 AM 57.2 °F 55.4 °F 94% 29.71 in 10.0 mi WSW 6.9 mph - N/A   Overcast
2:33 AM 57.2 °F 55.4 °F 94% 29.71 in 7.0 mi Calm Calm - N/A   Overcast
2:53 AM 55.4 °F 55.4 °F 100% 29.72 in 2.0 mi WSW 5.8 mph - N/A   Light Drizzle
3:13 AM 55.4 °F 55.4 °F 100% 29.72 in 2.5 mi WSW 8.1 mph - N/A Rain Light Rain
3:33 AM 55.4 °F 55.4 °F 100% 29.71 in 5.0 mi West 6.9 mph - N/A   Overcast
3:53 AM 55.4 °F 55.4 °F 100% 29.71 in 10.0 mi WSW 5.8 mph - N/A   Overcast
4:13 AM 55.4 °F 53.6 °F 94% 29.72 in 3.0 mi West 6.9 mph - N/A   Overcast
4:33 AM 55.4 °F 53.6 °F 94% 29.72 in 4.0 mi WSW 6.9 mph - N/A   Overcast
4:53 AM 55.4 °F 53.6 °F 94% 29.71 in 5.0 mi West 3.5 mph - N/A   Overcast
5:13 AM 53.6 °F 53.6 °F 100% 29.72 in 2.0 mi West 5.8 mph - N/A   Overcast
5:33 AM 53.6 °F 53.6 °F 100% 29.72 in 2.0 mi West 5.8 mph - N/A   Overcast
5:53 AM 53.6 °F 53.6 °F 100% 29.72 in 1.8 mi West 8.1 mph - N/A   Overcast
6:13 AM 53.6 °F 53.6 °F 100% 29.73 in 2.5 mi West 6.9 mph - N/A   Overcast
6:33 AM 53.6 °F 53.6 °F 100% 29.73 in 4.0 mi West 6.9 mph 17.3 mph N/A   Overcast
6:53 AM 55.4 °F 53.6 °F 94% 29.73 in 10.0 mi West 6.9 mph - N/A   Overcast
7:13 AM 55.4 °F 53.6 °F 94% 29.73 in 5.0 mi WNW 3.5 mph - N/A   Overcast
7:33 AM 55.4 °F 53.6 °F 94% 29.73 in 2.5 mi West 8.1 mph - N/A   Drizzle
8:13 AM 55.4 °F 53.6 °F 94% 29.74 in 10.0 mi West 8.1 mph - N/A   Overcast
8:33 AM 55.4 °F 55.4 °F 100% 29.75 in 10.0 mi West 8.1 mph - N/A   Overcast
8:53 AM 55.4 °F 55.4 °F 100% 29.76 in 10.0 mi West 5.8 mph - N/A   Overcast
9:13 AM 55.4 °F 55.4 °F 100% 29.76 in 5.0 mi West 5.8 mph - N/A   Overcast
9:33 AM 55.4 °F 55.4 °F 100% 29.77 in 2.5 mi WNW 3.5 mph - N/A Rain Rain
9:53 AM 55.4 °F 55.4 °F 100% 29.78 in 3.0 mi NW 4.6 mph - N/A   Drizzle
10:13 AM 55.4 °F 55.4 °F 100% 29.79 in 3.0 mi NW 3.5 mph - N/A Rain Rain
10:33 AM 55.4 °F 53.6 °F 94% 29.80 in 2.5 mi WNW 5.8 mph - N/A Rain Light Rain
10:53 AM 55.4 °F 55.4 °F 100% 29.81 in 7.0 mi NW 4.6 mph - N/A   Overcast
11:13 AM 57.2 °F 55.4 °F 94% 29.81 in 7.0 mi Calm Calm - N/A   Overcast
11:33 AM 57.2 °F 55.4 °F 94% 29.82 in 10.0 mi NW 8.1 mph - 0.01 in   Overcast
11:53 AM 57.2 °F 57.2 °F 100% 29.83 in 10.0 mi West 8.1 mph - 0.01 in   Overcast
12:13 PM 57.2 °F 55.4 °F 94% 29.83 in 7.0 mi WNW 8.1 mph - N/A   Light Drizzle
12:33 PM 59.0 °F 57.2 °F 94% 29.84 in 7.0 mi NNW 5.8 mph - N/A   Overcast
12:53 PM 59.0 °F 57.2 °F 94% 29.84 in 10.0 mi NNW 9.2 mph 24.2 mph N/A Rain Light Rain
1:13 PM 59.0 °F 57.2 °F 94% 29.85 in 10.0 mi NW 6.9 mph - N/A Rain Light Rain
1:33 PM 59.0 °F 57.2 °F 94% 29.85 in 10.0 mi NW 6.9 mph - N/A   Overcast
1:53 PM 60.8 °F 59.0 °F 94% 29.85 in 10.0 mi NW 17.3 mph 25.3 mph N/A   Overcast
2:13 PM 59.0 °F 59.0 °F 100% 29.86 in 10.0 mi West 6.9 mph - N/A   Overcast
2:33 PM 59.0 °F 57.2 °F 94% 29.87 in 10.0 mi NW 9.2 mph 23.0 mph N/A   Overcast
2:53 PM 59.0 °F 59.0 °F 100% 29.87 in 10.0 mi NW 13.8 mph 21.9 mph N/A   Overcast
3:13 PM 60.8 °F 59.0 °F 94% 29.88 in 10.0 mi NNW 8.1 mph 19.6 mph N/A   Overcast
3:33 PM 59.0 °F 57.2 °F 94% 29.89 in 10.0 mi NW 12.7 mph 20.7 mph N/A   Overcast
3:53 PM 60.8 °F 60.8 °F 100% 29.89 in 10.0 mi NW 5.8 mph - N/A   Overcast
4:13 PM 60.8 °F 60.8 °F 100% 29.90 in 10.0 mi WNW 10.4 mph 16.1 mph N/A   Overcast
4:33 PM 60.8 °F 60.8 °F 100% 29.89 in 10.0 mi NW 8.1 mph 18.4 mph N/A   Overcast
4:53 PM 59.0 °F 57.2 °F 94% 29.90 in 10.0 mi NW 11.5 mph 21.9 mph N/A   Overcast
5:14 PM 60.8 °F 59.0 °F 94% 29.91 in 10.0 mi NW 5.8 mph - N/A   Overcast
5:33 PM 59.0 °F 57.2 °F 94% 29.91 in 10.0 mi NW 11.5 mph 20.7 mph N/A   Overcast
5:53 PM 57.2 °F 57.2 °F 100% 29.91 in 10.0 mi NW 9.2 mph - N/A   Overcast
6:13 PM 59.0 °F 57.2 °F 94% 29.92 in 10.0 mi NNW 9.2 mph 19.6 mph N/A   Overcast
6:33 PM 57.2 °F 57.2 °F 100% 29.92 in 10.0 mi NNW 11.5 mph 19.6 mph N/A   Overcast
6:53 PM 57.2 °F 57.2 °F 100% 29.93 in 10.0 mi North 10.4 mph 17.3 mph N/A   Overcast
7:13 PM 59.0 °F 57.2 °F 94% 29.93 in 10.0 mi NNW 8.1 mph - N/A   Overcast
7:33 PM 57.2 °F 55.4 °F 94% 29.93 in 10.0 mi NNW 5.8 mph - N/A   Mostly Cloudy
7:52 PM 55.4 °F 53.6 °F 94% 29.94 in 10.0 mi North 6.9 mph - N/A   Scattered Clouds
8:13 PM 55.4 °F 51.8 °F 88% 29.95 in 10.0 mi North 6.9 mph - N/A   Mostly Cloudy
8:33 PM 53.6 °F 51.8 °F 94% 29.97 in 10.0 mi NNW 4.6 mph - N/A   Scattered Clouds
8:53 PM 53.6 °F 50.0 °F 88% 29.98 in 10.0 mi NNW 4.6 mph - N/A   Clear
9:13 PM 51.8 °F 48.2 °F 88% 29.98 in 10.0 mi Calm Calm - N/A   Clear
9:33 PM 48.2 °F 44.6 °F 87% 29.98 in 10.0 mi Calm Calm - N/A   Clear
9:53 PM 46.4 °F 42.8 °F 87% 29.99 in 10.0 mi Calm Calm - N/A   Clear
10:13 PM 44.6 °F 41.0 °F 87% 29.99 in 10.0 mi Calm Calm - N/A   Clear
10:53 PM 42.8 °F 39.2 °F 87% 30.00 in 10.0 mi Calm Calm - N/A   Clear
11:33 PM 42.8 °F 39.2 °F 87% 30.00 in 10.0 mi Calm Calm - N/A   Clear
11:53 PM 42.8 °F 39.2 °F 87% 30.01 in 10.0 mi Calm Calm - N/A   Clear